Location: Carr Mill
(33.2054°N, 85.9439°W)
Time: 00:14:19
(UTC+00:00)

Cosmos 1939 Rocket - Pass Details

Date: 29 October 2020
Orbit: 532 x 584 km, 97.4° (Epoch: 28 November)

Event Time Altitude Azimuth Distance (km) Brightness Sun altitude
Rises 23:15:14 0° 139° (SE) 2,734 6.1 -5.0°
Reaches altitude 10° 23:17:41 10° 125° (SE) 1,833 5.1 -5.5°
Maximum altitude 23:20:50 23° 72° (ENE) 1,200 4.0 -6.2°
Drops below altitude 10° 23:23:56 10° 19° (NNE) 1,819 5.2 -6.8°
Sets 23:26:22 0° 5° (N) 2,707 6.2 -7.3°
